����������;��������(kWh)
2018-09-17 00:00;76,95
2018-09-17 00:15;74
2018-09-17 00:30;73,9
2018-09-17 00:45;75,4
2018-09-17 01:00;74,5
2018-09-17 01:15;75,2
2018-09-17 01:30;76,6
2018-09-17 01:45;74,05
2018-09-17 02:00;73,95
2018-09-17 02:15;74,45
2018-09-17 02:30;73,25
2018-09-17 02:45;74,2
2018-09-17 03:00;76,35
2018-09-17 03:15;73,2
2018-09-17 03:30;74,2
2018-09-17 03:45;83,55
2018-09-17 04:00;84,25
2018-09-17 04:15;84,65
2018-09-17 04:30;88,3
2018-09-17 04:45;86,1
2018-09-17 05:00;85,8
2018-09-17 05:15;89,05
2018-09-17 05:30;87,95
2018-09-17 05:45;87,05
2018-09-17 06:00;87,35
2018-09-17 06:15;83,75
2018-09-17 06:30;82,85
2018-09-17 06:45;107,85
2018-09-17 07:00;108,95
2018-09-17 07:15;100,05
2018-09-17 07:30;157,3
2018-09-17 07:45;150,05
2018-09-17 08:00;154,45
2018-09-17 08:15;146,25
2018-09-17 08:30;142,7
2018-09-17 08:45;159,1
2018-09-17 09:00;165,6
2018-09-17 09:15;162
2018-09-17 09:30;175,55
2018-09-17 09:45;181,15
2018-09-17 10:00;181,7
2018-09-17 10:15;191,6
2018-09-17 10:30;196,8
2018-09-17 10:45;200,4
2018-09-17 11:00;209,05
2018-09-17 11:15;216,1
2018-09-17 11:30;222,1
2018-09-17 11:45;219,5
2018-09-17 12:00;219,9
2018-09-17 12:15;218,15
2018-09-17 12:30;223,8
2018-09-17 12:45;218,8
2018-09-17 13:00;220,5
2018-09-17 13:15;219,7
2018-09-17 13:30;228,05
2018-09-17 13:45;223,1
2018-09-17 14:00;217,9
2018-09-17 14:15;221,75
2018-09-17 14:30;219,4
2018-09-17 14:45;215,75
2018-09-17 15:00;212,6
2018-09-17 15:15;211,15
2018-09-17 15:30;204,75
2018-09-17 15:45;203,55
2018-09-17 16:00;197,1
2018-09-17 16:15;189
2018-09-17 16:30;192,6
2018-09-17 16:45;182,75
2018-09-17 17:00;181,7
2018-09-17 17:15;180,1
2018-09-17 17:30;176,45
2018-09-17 17:45;175,75
2018-09-17 18:00;168,25
2018-09-17 18:15;158,85
2018-09-17 18:30;161,3
2018-09-17 18:45;152,3
2018-09-17 19:00;154,15
2018-09-17 19:15;141
2018-09-17 19:30;133,95
2018-09-17 19:45;133
2018-09-17 20:00;131,55
2018-09-17 20:15;123,6
2018-09-17 20:30;118,85
2018-09-17 20:45;116,6
2018-09-17 21:00;104,7
2018-09-17 21:15;99,15
2018-09-17 21:30;102,1
2018-09-17 21:45;98,4
2018-09-17 22:00;93,65
2018-09-17 22:15;92,75
2018-09-17 22:30;94
2018-09-17 22:45;93,4
2018-09-17 23:00;93,4
2018-09-17 23:15;91,8
2018-09-17 23:30;92,15
2018-09-17 23:45;91,05
2018-09-18 00:00;83,75
2018-09-18 00:15;79,1
2018-09-18 00:30;77,65
2018-09-18 00:45;78,05
2018-09-18 01:00;77,5
2018-09-18 01:15;78,95
2018-09-18 01:30;77,05
2018-09-18 01:45;77,65
2018-09-18 02:00;76,8
2018-09-18 02:15;77,3
2018-09-18 02:30;76,3
2018-09-18 02:45;78,6
2018-09-18 03:00;80,4
2018-09-18 03:15;78,75
2018-09-18 03:30;77,55
2018-09-18 03:45;78,3
2018-09-18 04:00;77,8
2018-09-18 04:15;77,6
2018-09-18 04:30;80,75
2018-09-18 04:45;89,3
2018-09-18 05:00;91,55
2018-09-18 05:15;93,7
2018-09-18 05:30;92,55
2018-09-18 05:45;91,5
2018-09-18 06:00;92,85
2018-09-18 06:15;90,2
2018-09-18 06:30;89,45
2018-09-18 06:45;112,65
2018-09-18 07:00;112,8
2018-09-18 07:15;106,8
2018-09-18 07:30;153,05
2018-09-18 07:45;137,9
2018-09-18 08:00;134,4
2018-09-18 08:15;121,55
2018-09-18 08:30;131,95
2018-09-18 08:45;143,55
2018-09-18 09:00;151,75
2018-09-18 09:15;155,6
2018-09-18 09:30;166,25
2018-09-18 09:45;173,3
2018-09-18 10:00;174,05
2018-09-18 10:15;177,35
2018-09-18 10:30;182,6
2018-09-18 10:45;196,75
2018-09-18 11:00;197,65
2018-09-18 11:15;200,1
2018-09-18 11:30;203,1
2018-09-18 11:45;208,1
2018-09-18 12:00;204,25
2018-09-18 12:15;197,4
2018-09-18 12:30;209,2
2018-09-18 12:45;211,35
2018-09-18 13:00;207,9
2018-09-18 13:15;205,1
2018-09-18 13:30;205,95
2018-09-18 13:45;210,25
2018-09-18 14:00;198,75
2018-09-18 14:15;199,35
2018-09-18 14:30;206,8
2018-09-18 14:45;203,8
2018-09-18 15:00;190,55
2018-09-18 15:15;187,85
2018-09-18 15:30;186,9
2018-09-18 15:45;188,3
2018-09-18 16:00;173,65
2018-09-18 16:15;166,75
2018-09-18 16:30;177,4
2018-09-18 16:45;162,6
2018-09-18 17:00;153,6
2018-09-18 17:15;149,7
2018-09-18 17:30;153,9
2018-09-18 17:45;154,25
2018-09-18 18:00;143,85
2018-09-18 18:15;138,75
2018-09-18 18:30;139,7
2018-09-18 18:45;132,4
2018-09-18 19:00;136
2018-09-18 19:15;126,95
2018-09-18 19:30;124,5
2018-09-18 19:45;121,55
2018-09-18 20:00;125,55
2018-09-18 20:15;111,2
2018-09-18 20:30;110,6
2018-09-18 20:45;111,85
2018-09-18 21:00;107
2018-09-18 21:15;107,65
2018-09-18 21:30;106,55
2018-09-18 21:45;104,05
2018-09-18 22:00;101,75
2018-09-18 22:15;98,25
2018-09-18 22:30;95,4
2018-09-18 22:45;93,1
2018-09-18 23:00;91,95
2018-09-18 23:15;90,25
2018-09-18 23:30;91,35
2018-09-18 23:45;94,75
2018-09-19 00:00;94,65
2018-09-19 00:15;92,95
2018-09-19 00:30;88,55
2018-09-19 00:45;87
2018-09-19 01:00;90,3
2018-09-19 01:15;82,85
2018-09-19 01:30;81,2
2018-09-19 01:45;88,4
2018-09-19 02:00;88,2
2018-09-19 02:15;86,95
2018-09-19 02:30;89,5
2018-09-19 02:45;87,75
2018-09-19 03:00;88,25
2018-09-19 03:15;89,3
2018-09-19 03:30;88,25
2018-09-19 03:45;87,7
2018-09-19 04:00;90,65
2018-09-19 04:15;86,55
2018-09-19 04:30;90,15
2018-09-19 04:45;90,35
2018-09-19 05:00;90,65
2018-09-19 05:15;90,1
2018-09-19 05:30;93
2018-09-19 05:45;92,75
2018-09-19 06:00;93,2
2018-09-19 06:15;90,7
2018-09-19 06:30;91,45
2018-09-19 06:45;88,5
2018-09-19 07:00;87,25
2018-09-19 07:15;95,2
2018-09-19 07:30;160,75
2018-09-19 07:45;144,35
2018-09-19 08:00;137,9
2018-09-19 08:15;119,05
2018-09-19 08:30;128,8
2018-09-19 08:45;139,65
2018-09-19 09:00;141,65
2018-09-19 09:15;154,85
2018-09-19 09:30;165,8
2018-09-19 09:45;160,05
2018-09-19 10:00;160,45
2018-09-19 10:15;169,15
2018-09-19 10:30;174,55
2018-09-19 10:45;173,35
2018-09-19 11:00;189,75
2018-09-19 11:15;195,5
2018-09-19 11:30;189,6
2018-09-19 11:45;203
2018-09-19 12:00;199,3
2018-09-19 12:15;191,15
2018-09-19 12:30;199,3
2018-09-19 12:45;196,75
2018-09-19 13:00;190,6
2018-09-19 13:15;203,75
2018-09-19 13:30;210,35
2018-09-19 13:45;204,5
2018-09-19 14:00;194,75
2018-09-19 14:15;206,45
2018-09-19 14:30;203,05
2018-09-19 14:45;195,15
2018-09-19 15:00;196,9
2018-09-19 15:15;187,9
2018-09-19 15:30;179,25
2018-09-19 15:45;169,25
2018-09-19 16:00;174,8
2018-09-19 16:15;163,15
2018-09-19 16:30;155,3
2018-09-19 16:45;148,3
2018-09-19 17:00;151,25
2018-09-19 17:15;148,9
2018-09-19 17:30;158,35
2018-09-19 17:45;159,9
2018-09-19 18:00;153,5
2018-09-19 18:15;142,2
2018-09-19 18:30;138,65
2018-09-19 18:45;150
2018-09-19 19:00;138,7
2018-09-19 19:15;129,5
2018-09-19 19:30;129,5
2018-09-19 19:45;126,4
2018-09-19 20:00;123,1
2018-09-19 20:15;123,7
2018-09-19 20:30;121,85
2018-09-19 20:45;119,55
2018-09-19 21:00;116,95
2018-09-19 21:15;107,5
2018-09-19 21:30;108,15
2018-09-19 21:45;102,45
2018-09-19 22:00;89,35
2018-09-19 22:15;89,4
2018-09-19 22:30;88,5
2018-09-19 22:45;86,4
2018-09-19 23:00;86,4
2018-09-19 23:15;82,55
2018-09-19 23:30;81,8
2018-09-19 23:45;81,7
2018-09-20 00:00;82,45
2018-09-20 00:15;80,75
2018-09-20 00:30;79,8
2018-09-20 00:45;80,55
2018-09-20 01:00;77,55
2018-09-20 01:15;78,45
2018-09-20 01:30;78,2
2018-09-20 01:45;80,85
2018-09-20 02:00;87,65
2018-09-20 02:15;88,2
2018-09-20 02:30;87,75
2018-09-20 02:45;86,75
2018-09-20 03:00;86,45
2018-09-20 03:15;87,65
2018-09-20 03:30;89,4
2018-09-20 03:45;88,4
2018-09-20 04:00;88,55
2018-09-20 04:15;88,9
2018-09-20 04:30;88,2
2018-09-20 04:45;88,95
2018-09-20 05:00;89,6
2018-09-20 05:15;94,2
2018-09-20 05:30;96,05
2018-09-20 05:45;99,35
2018-09-20 06:00;96,5
2018-09-20 06:15;91,85
2018-09-20 06:30;89,15
2018-09-20 06:45;87,5
2018-09-20 07:00;87,75
2018-09-20 07:15;87,55
2018-09-20 07:30;129,9
2018-09-20 07:45;135,4
2018-09-20 08:00;150,55
2018-09-20 08:15;127,7
2018-09-20 08:30;129,8
2018-09-20 08:45;137,75
2018-09-20 09:00;134,75
2018-09-20 09:15;143,15
2018-09-20 09:30;156,3
2018-09-20 09:45;158,8
2018-09-20 10:00;158,45
2018-09-20 10:15;176,9
2018-09-20 10:30;174,6
2018-09-20 10:45;189,7
2018-09-20 11:00;189,05
2018-09-20 11:15;189,7
2018-09-20 11:30;188,1
2018-09-20 11:45;198,55
2018-09-20 12:00;205,65
2018-09-20 12:15;197,55
2018-09-20 12:30;202
2018-09-20 12:45;198,35
2018-09-20 13:00;202,65
2018-09-20 13:15;205,4
2018-09-20 13:30;198,3
2018-09-20 13:45;200,8
2018-09-20 14:00;202,65
2018-09-20 14:15;200,85
2018-09-20 14:30;196,3
2018-09-20 14:45;198,5
2018-09-20 15:00;197,4
2018-09-20 15:15;180,3
2018-09-20 15:30;185,9
2018-09-20 15:45;176,15
2018-09-20 16:00;177,7
2018-09-20 16:15;171,2
2018-09-20 16:30;161,05
2018-09-20 16:45;159,3
2018-09-20 17:00;161,7
2018-09-20 17:15;155,15
2018-09-20 17:30;147,2
2018-09-20 17:45;158,2
2018-09-20 18:00;149,8
2018-09-20 18:15;143,4
2018-09-20 18:30;149,85
2018-09-20 18:45;136,05
2018-09-20 19:00;144,2
2018-09-20 19:15;125,3
2018-09-20 19:30;121,45
2018-09-20 19:45;124,75
2018-09-20 20:00;121,15
2018-09-20 20:15;114,95
2018-09-20 20:30;111,55
2018-09-20 20:45;112,45
2018-09-20 21:00;110,9
2018-09-20 21:15;106,2
2018-09-20 21:30;102,9
2018-09-20 21:45;98,55
2018-09-20 22:00;96,25
2018-09-20 22:15;95,7
2018-09-20 22:30;96,8
2018-09-20 22:45;98,3
2018-09-20 23:00;95,6
2018-09-20 23:15;89,4
2018-09-20 23:30;86,3
2018-09-20 23:45;87,55
2018-09-21 00:00;87,4
2018-09-21 00:15;89,35
2018-09-21 00:30;88,55
2018-09-21 00:45;82,15
2018-09-21 01:00;81,7
2018-09-21 01:15;81,85
2018-09-21 01:30;82,35
2018-09-21 01:45;82,5
2018-09-21 02:00;82,4
2018-09-21 02:15;79,3
2018-09-21 02:30;88,05
2018-09-21 02:45;90,6
2018-09-21 03:00;92,15
2018-09-21 03:15;92,15
2018-09-21 03:30;91,8
2018-09-21 03:45;94
2018-09-21 04:00;92,6
2018-09-21 04:15;91,2
2018-09-21 04:30;94,25
2018-09-21 04:45;117,7
2018-09-21 05:00;113,5
2018-09-21 05:15;107,5
2018-09-21 05:30;105,5
2018-09-21 05:45;103,95
2018-09-21 06:00;103,2
2018-09-21 06:15;102,6
2018-09-21 06:30;100,4
2018-09-21 06:45;99,2
2018-09-21 07:00;101,4
2018-09-21 07:15;98,8
2018-09-21 07:30;140,75
2018-09-21 07:45;138,85
2018-09-21 08:00;139,2
2018-09-21 08:15;122,7
2018-09-21 08:30;138,3
2018-09-21 08:45;155,2
2018-09-21 09:00;155,6
2018-09-21 09:15;166,55
2018-09-21 09:30;168,4
2018-09-21 09:45;174,25
2018-09-21 10:00;177,75
2018-09-21 10:15;172,1
2018-09-21 10:30;176,7
2018-09-21 10:45;183,5
2018-09-21 11:00;191,4
2018-09-21 11:15;195,1
2018-09-21 11:30;189,55
2018-09-21 11:45;192,2
2018-09-21 12:00;200,35
2018-09-21 12:15;197,6
2018-09-21 12:30;192,2
2018-09-21 12:45;199
2018-09-21 13:00;206,2
2018-09-21 13:15;208,8
2018-09-21 13:30;200,65
2018-09-21 13:45;211,1
2018-09-21 14:00;209,85
2018-09-21 14:15;197,3
2018-09-21 14:30;206,3
2018-09-21 14:45;194,95
2018-09-21 15:00;205
2018-09-21 15:15;207,25
2018-09-21 15:30;181,2
2018-09-21 15:45;185,2
2018-09-21 16:00;186
2018-09-21 16:15;166,4
2018-09-21 16:30;169,4
2018-09-21 16:45;167,75
2018-09-21 17:00;155,35
2018-09-21 17:15;159,55
2018-09-21 17:30;164,8
2018-09-21 17:45;153,35
2018-09-21 18:00;161
2018-09-21 18:15;151,5
2018-09-21 18:30;146,3
2018-09-21 18:45;137,3
2018-09-21 19:00;146,45
2018-09-21 19:15;130,85
2018-09-21 19:30;129,1
2018-09-21 19:45;126,5
2018-09-21 20:00;126,65
2018-09-21 20:15;120,9
2018-09-21 20:30;112,9
2018-09-21 20:45;111,45
2018-09-21 21:00;107,4
2018-09-21 21:15;104,95
2018-09-21 21:30;103,2
2018-09-21 21:45;100,95
2018-09-21 22:00;96,4
2018-09-21 22:15;93,4
2018-09-21 22:30;93,95
2018-09-21 22:45;88,95
2018-09-21 23:00;88,9
2018-09-21 23:15;87,2
2018-09-21 23:30;90,3
2018-09-21 23:45;89,1
2018-09-22 00:00;87,35
2018-09-22 00:15;80,25
2018-09-22 00:30;79,7
2018-09-22 00:45;79,3
2018-09-22 01:00;79,9
2018-09-22 01:15;77,45
2018-09-22 01:30;79,4
2018-09-22 01:45;79,65
2018-09-22 02:00;77,85
2018-09-22 02:15;77,6
2018-09-22 02:30;78,65
2018-09-22 02:45;77,4
2018-09-22 03:00;80,1
2018-09-22 03:15;78,3
2018-09-22 03:30;78,25
2018-09-22 03:45;80,25
2018-09-22 04:00;78,6
2018-09-22 04:15;79,2
2018-09-22 04:30;80,85
2018-09-22 04:45;80,4
2018-09-22 05:00;79,6
2018-09-22 05:15;78,6
2018-09-22 05:30;80,1
2018-09-22 05:45;79,5
2018-09-22 06:00;77,8
2018-09-22 06:15;77,95
2018-09-22 06:30;78,45
2018-09-22 06:45;75,15
2018-09-22 07:00;74,45
2018-09-22 07:15;71,05
2018-09-22 07:30;69,6
2018-09-22 07:45;70,8
2018-09-22 08:00;71,75
2018-09-22 08:15;68,4
2018-09-22 08:30;68,35
2018-09-22 08:45;71,85
2018-09-22 09:00;72,05
2018-09-22 09:15;72,35
2018-09-22 09:30;73,05
2018-09-22 09:45;73,6
2018-09-22 10:00;73,5
2018-09-22 10:15;74,65
2018-09-22 10:30;74,65
2018-09-22 10:45;78,4
2018-09-22 11:00;77,05
2018-09-22 11:15;83,75
2018-09-22 11:30;83,8
2018-09-22 11:45;81,4
2018-09-22 12:00;80,35
2018-09-22 12:15;81
2018-09-22 12:30;85,15
2018-09-22 12:45;89,65
2018-09-22 13:00;86,95
2018-09-22 13:15;86,3
2018-09-22 13:30;87,05
2018-09-22 13:45;88,4
2018-09-22 14:00;87,35
2018-09-22 14:15;88,7
2018-09-22 14:30;88,7
2018-09-22 14:45;89,5
2018-09-22 15:00;88,7
2018-09-22 15:15;90,35
2018-09-22 15:30;89,35
2018-09-22 15:45;89,9
2018-09-22 16:00;88,7
2018-09-22 16:15;86,3
2018-09-22 16:30;86,45
2018-09-22 16:45;86,9
2018-09-22 17:00;87,6
2018-09-22 17:15;86,75
2018-09-22 17:30;85,15
2018-09-22 17:45;84,5
2018-09-22 18:00;87,3
2018-09-22 18:15;83,95
2018-09-22 18:30;85
2018-09-22 18:45;87,95
2018-09-22 19:00;86,45
2018-09-22 19:15;84,2
2018-09-22 19:30;86,7
2018-09-22 19:45;93,95
2018-09-22 20:00;95,15
2018-09-22 20:15;94,25
2018-09-22 20:30;101,35
2018-09-22 20:45;98,6
2018-09-22 21:00;101,9
2018-09-22 21:15;100,05
2018-09-22 21:30;98,5
2018-09-22 21:45;97,95
2018-09-22 22:00;95,4
2018-09-22 22:15;85
2018-09-22 22:30;85,3
2018-09-22 22:45;83,4
2018-09-22 23:00;82,95
2018-09-22 23:15;82,8
2018-09-22 23:30;82,15
2018-09-22 23:45;85,45
2018-09-23 00:00;81,75
2018-09-23 00:15;80,8
2018-09-23 00:30;82,7
2018-09-23 00:45;81,85
2018-09-23 01:00;82,55
2018-09-23 01:15;82,8
2018-09-23 01:30;81,55
2018-09-23 01:45;81,7
2018-09-23 02:00;81,35
2018-09-23 02:15;79,8
2018-09-23 02:30;82,3
2018-09-23 02:45;81,9
2018-09-23 03:00;81,2
2018-09-23 03:15;80,55
2018-09-23 03:30;79
2018-09-23 03:45;82,85
2018-09-23 04:00;81
2018-09-23 04:15;81,4
2018-09-23 04:30;83,55
2018-09-23 04:45;80,7
2018-09-23 05:00;81,05
2018-09-23 05:15;81,7
2018-09-23 05:30;80,25
2018-09-23 05:45;81,95
2018-09-23 06:00;82,05
2018-09-23 06:15;78,85
2018-09-23 06:30;77,3
2018-09-23 06:45;77,75
2018-09-23 07:00;77,05
2018-09-23 07:15;74,25
2018-09-23 07:30;73,05
2018-09-23 07:45;71,1
2018-09-23 08:00;70,15
2018-09-23 08:15;70,15
2018-09-23 08:30;70
2018-09-23 08:45;72,5
2018-09-23 09:00;74,95
2018-09-23 09:15;72,5
2018-09-23 09:30;72,15
2018-09-23 09:45;73,5
2018-09-23 10:00;74,9
2018-09-23 10:15;76
2018-09-23 10:30;78,9
2018-09-23 10:45;81
2018-09-23 11:00;80,6
2018-09-23 11:15;79,2
2018-09-23 11:30;82,4
2018-09-23 11:45;80,35
2018-09-23 12:00;81,95
2018-09-23 12:15;83,3
2018-09-23 12:30;83,45
2018-09-23 12:45;83,9
2018-09-23 13:00;85,7
2018-09-23 13:15;85,75
2018-09-23 13:30;85,35
2018-09-23 13:45;90,8
2018-09-23 14:00;86,15
2018-09-23 14:15;86,1
2018-09-23 14:30;91,1
2018-09-23 14:45;84,75
2018-09-23 15:00;85,95
2018-09-23 15:15;85,65
2018-09-23 15:30;84,7
2018-09-23 15:45;83,95
2018-09-23 16:00;82,55
2018-09-23 16:15;81,95
2018-09-23 16:30;85,15
2018-09-23 16:45;83,9
2018-09-23 17:00;85,15
2018-09-23 17:15;85
2018-09-23 17:30;84,1
2018-09-23 17:45;83,8
2018-09-23 18:00;84,6
2018-09-23 18:15;86,45
2018-09-23 18:30;84,25
2018-09-23 18:45;84,35
2018-09-23 19:00;85,55
2018-09-23 19:15;84,6
2018-09-23 19:30;86,3
2018-09-23 19:45;96
2018-09-23 20:00;97,6
2018-09-23 20:15;98,9
2018-09-23 20:30;97,85
2018-09-23 20:45;99,45
2018-09-23 21:00;98,6
2018-09-23 21:15;99,55
2018-09-23 21:30;98,25
2018-09-23 21:45;90,7
2018-09-23 22:00;87
2018-09-23 22:15;83
2018-09-23 22:30;81,85
2018-09-23 22:45;81,15
2018-09-23 23:00;83,45
2018-09-23 23:15;82,4
2018-09-23 23:30;80,45
2018-09-23 23:45;80,4

